This demonstration page uses our WeatherBlox Daily Observations layout. Learn more.

Left ArrowRight Arrow

39.51506, -84.39828

Hourly Observations for August 17, 2021

Temp ( °F °C ) Dew Point ( °F °C ) Humidity (%) Winds ( mph kmh ) Pressure ( in mb ) Visibility ( mi km ) Precip ( " mm )
12:15 am 00:15 Hazy 70 21 N/A N/A N N/A 30.04 1017 4 6 N/A
12:35 am 00:35 Cloudy with Haze 70 21 N/A N/A N N/A 30.04 1017 7 11 N/A
12:55 am 00:55 Cloudy with Haze 70 21 N/A N/A N N/A 30.04 1017 4 6 N/A
1:15 am 01:15 Mostly Cloudy with Mist and Fog 70 21 N/A N/A NW 3 6 30.04 1017 4 6 N/A
1:35 am 01:35 Mostly Cloudy with Haze 70 21 N/A N/A NW 3 6 30.03 1017 5 8 N/A
1:55 am 01:55 Partly Cloudy with Mist and Fog 70 21 N/A N/A N 3 6 30.03 1017 3 5 N/A
2:15 am 02:15 Hazy 70 21 N/A N/A NE 5 7 30.02 1017 4 6 N/A
2:35 am 02:35 Partly Cloudy with Mist and Fog 68 20 N/A N/A N N/A 30.02 1017 2 3 N/A
2:55 am 02:55 Clear with Mist and Fog 68 20 N/A N/A NNE 3 6 30.01 1016 2 3 N/A
3:15 am 03:15 Clear with Mist and Fog 70 21 N/A N/A N N/A 30.01 1016 4 6 N/A
3:35 am 03:35 Mostly Cloudy with Mist and Fog 68 20 N/A N/A NNE 3 6 30.01 1016 1 2 N/A
3:55 am 03:55 Partly Cloudy with Mist and Fog 68 20 N/A N/A NE 3 6 30.01 1016 4 6 N/A
4:15 am 04:15 Cloudy with Mist and Fog 68 20 N/A N/A N N/A 30.01 1016 4 6 N/A
4:35 am 04:35 Partly Cloudy with Mist and Fog 68 20 N/A N/A N N/A 30.01 1016 4 6 N/A
4:55 am 04:55 Clear with Mist and Fog 68 20 N/A N/A NE 3 6 30.01 1016 4 6 N/A
5:15 am 05:15 Clear with Mist and Fog 68 20 N/A N/A NNE 3 6 30.02 1017 3 4 N/A
5:35 am 05:35 Hazy 68 20 N/A N/A N N/A 30.02 1017 4 6 N/A
5:55 am 05:55 Hazy 68 20 N/A N/A N N/A 30.02 1017 5 8 N/A
6:15 am 06:15 Mostly Cloudy with Mist and Fog 66 19 N/A N/A N 3 6 30.03 1017 4 6 N/A
6:35 am 06:35 Hazy 68 20 N/A N/A N 3 6 30.03 1017 4 6 N/A
6:55 am 06:55 Sunny with Mist and Fog 68 20 N/A N/A N 3 6 30.03 1017 4 6 N/A
7:15 am 07:15 Hazy 68 20 N/A N/A N N/A 30.04 1017 4 6 N/A
7:35 am 07:35 Hazy 68 20 N/A N/A NNE 3 6 30.04 1017 5 8 N/A
7:55 am 07:55 Mostly Cloudy with Haze 68 20 N/A N/A N N/A 30.05 1018 5 8 N/A
8:15 am 08:15 Hazy 70 21 N/A N/A N 3 6 30.06 1018 5 8 N/A
8:35 am 08:35 Cloudy with Haze 70 21 N/A N/A N N/A 30.06 1018 5 8 N/A
8:55 am 08:55 Mostly Cloudy 70 21 N/A N/A NNE 3 6 30.06 1018 10 16 N/A
9:15 am 09:15 Mostly Cloudy 72 22 N/A N/A ENE 5 7 30.06 1018 10 16 N/A
9:35 am 09:35 Cloudy with Light Rain 72 22 N/A N/A N N/A 30.06 1018 5 8 N/A
9:55 am 09:55 Cloudy with Light Rain 72 22 N/A N/A NNE 3 6 30.06 1018 4 6 0.02 0.51
10:15 am 10:15 Sunny 73 23 N/A N/A ENE 3 6 30.05 1018 10 16 N/A
10:35 am 10:35 Partly Cloudy 74 23.4 74 23.3 99 99 NE 3 6 30.06 1018 10 16 N/A
10:55 am 10:55 Mostly Cloudy 75 23.8 74 23.5 98 98 N N/A 30.06 1018 10 16 N/A
11:15 am 11:15 Cloudy 75 24.1 75 23.7 98 98 N N/A 30.07 1018 10 16 N/A
11:35 am 11:35 Cloudy 76 24.2 74 23.4 95 95 SW 3 6 30.06 1018 10 16 N/A
11:55 am 11:55 Cloudy with Light Rain 76 24.3 76 24.2 99 99 SE 5 7 30.05 1018 10 16 N/A
12:15 pm 12:15 Cloudy with Rain 76 24.4 74 23.4 94 94 SSE 5 7 30.05 1018 7 11 N/A
12:35 pm 12:35 Cloudy 77 25 75 24 94 94 NE 3 6 30.05 1018 10 16 N/A
12:55 pm 12:55 Partly Cloudy with Mist and Fog 78 25.8 75 24 90 90 E 3 6 30.04 1017 7 11 N/A
1:15 pm 13:15 Cloudy 80 26.4 76 24.5 89 89 E 3 6 30.03 1017 7 11 N/A
1:35 pm 13:35 Partly Cloudy 80 26.5 76 24.3 88 88 N N/A 30.03 1017 10 16 N/A
1:55 pm 13:55 Partly Cloudy 81 27.4 75 24 82 82 ENE 6 9 30.02 1017 10 16 N/A
2:15 pm 14:15 Mostly Cloudy 81 27.1 74 23.4 80 80 E 7 11 30.02 1017 10 16 N/A
2:35 pm 14:35 Partly Cloudy 83 28.5 74 23.4 74 74 ENE 3 6 30.02 1016 10 16 N/A
2:55 pm 14:55 Mostly Cloudy 82 27.9 73 22.5 73 73 E 10 17 30.01 1016 10 16 N/A
3:15 pm 15:15 Cloudy 83 28.6 74 23.5 74 74 ESE 9 15 30.00 1016 10 16 N/A
3:35 pm 15:35 Cloudy 83 28.2 73 22.6 72 72 ESE 10 17 30.00 1016 10 16 N/A
3:55 pm 15:55 Partly Cloudy 83 28.3 73 22.8 72 72 E 9 15 29.99 1015 10 16 N/A
4:15 pm 16:15 Sunny 83 28.4 74 23.4 74 74 E 8 13 29.99 1015 10 16 N/A
4:35 pm 16:35 Partly Cloudy 84 28.7 73 22.9 71 71 E 8 13 29.98 1015 10 16 N/A
4:55 pm 16:55 Mostly Cloudy 82 28 74 23.1 75 75 ESE 10 17 29.99 1015 10 16 N/A
5:15 pm 17:15 Mostly Cloudy 81 27.2 73 22.7 76 76 SE 9 15 29.99 1016 10 16 N/A
5:35 pm 17:35 Cloudy with Light Rain 79 26 76 24.3 90 90 S 10 17 29.99 1016 10 16 N/A
5:55 pm 17:55 Cloudy with Light Rain 77 24.8 74 23.1 90 90 S 9 15 29.99 1016 10 16 0.01 0.25
6:15 pm 18:15 Cloudy 76 24.4 74 23.5 95 95 SSE 7 11 29.99 1016 10 16 N/A
6:35 pm 18:35 Cloudy 76 24.4 74 23.6 95 95 ESE 5 7 29.98 1015 10 16 N/A
6:55 pm 18:55 Cloudy 76 24.7 74 23.6 94 94 ESE 8 13 29.98 1015 10 16 N/A
7:15 pm 19:15 Sunny 76 24.7 75 23.7 94 94 ESE 5 7 29.98 1015 10 16 N/A
7:35 pm 19:35 Sunny 76 24.6 75 23.9 96 96 NNE 3 6 29.97 1015 10 16 N/A
7:55 pm 19:55 Sunny 76 24.5 75 23.7 95 95 E 5 7 29.98 1015 10 16 N/A
8:15 pm 20:15 Sunny 75 24.1 74 23.5 96 96 E 3 6 29.99 1015 10 16 N/A
8:35 pm 20:35 Clear 75 24 73 22.9 94 94 N N/A 29.99 1015 10 16 N/A
8:55 pm 20:55 Clear 74 23.4 73 22.9 97 97 E 7 11 29.99 1015 10 16 N/A
9:15 pm 21:15 Clear 74 23.1 73 22.8 98 98 E 5 7 30.00 1016 10 16 N/A
9:35 pm 21:35 Partly Cloudy 73 23 73 23 100 100 ESE 5 7 30.00 1016 10 16 N/A
9:55 pm 21:55 Clear 73 23 73 23 100 100 ENE 5 7 30.01 1016 10 16 N/A
10:15 pm 22:15 Clear 73 23 N/A N/A E 7 11 30.01 1016 10 16 N/A
10:35 pm 22:35 Clear 72 22 72 22 100 100 NNE 3 6 30.02 1017 10 16 N/A
10:55 pm 22:55 Clear 72 22 N/A N/A N 5 7 30.02 1017 10 16 N/A
11:15 pm 23:15 Clear 72 22 N/A N/A NNE 3 6 30.03 1017 10 16 N/A
11:35 pm 23:35 Clear 72 22 N/A N/A ENE 3 6 30.02 1017 10 16 N/A
11:55 pm 23:55 Clear 72 22 N/A N/A NNE 3 6 30.02 1017 10 16 N/A

Powered by AerisWeather